| time (UTC) | temp C | wind direction | speed KPH | gust KPH | rain 1hr cm | rain 24hr cm | rain mn cm | humidity % | barometer mb |
| 20260508182057 | 27 | 56 | 17.7 | 27.4 | 0.00 | 0.56 | 0.00 | 55 | 1011.4 |
| 20260508181557 | 27 | 83 | 12.9 | 29.0 | 0.00 | 0.56 | 0.00 | 56 | 1011.4 |
| 20260508181056 | 27 | 108 | 14.5 | 29.0 | 0.00 | 0.56 | 0.00 | 55 | 1011.4 |
| 20260508180556 | 27 | 105 | 14.5 | 24.1 | 0.00 | 0.56 | 0.00 | 56 | 1011.4 |
| 20260508180114 | 27 | 88 | 17.7 | 29.0 | 0.00 | 0.56 | 0.00 | 58 | 1011.5 |
| 20260508175554 | 27 | 360 | 16.1 | 29.0 | 0.00 | 0.56 | 0.00 | 57 | 1011.5 |
| 20260508175054 | 27 | 132 | 14.5 | 22.5 | 0.00 | 0.56 | 0.00 | 57 | 1011.6 |
| 20260508174605 | 27 | 119 | 14.5 | 24.1 | 0.00 | 0.56 | 0.00 | 58 | 1011.6 |
| 20260508174052 | 27 | 360 | 12.9 | 24.1 | 0.00 | 0.56 | 0.00 | 58 | 1011.7 |
| 20260508173551 | 27 | 126 | 16.1 | 24.1 | 0.00 | 0.56 | 0.00 | 60 | 1011.8 |
| 20260508173050 | 26 | 360 | 12.9 | 25.7 | 0.00 | 0.56 | 0.00 | 60 | 1011.8 |
| 20260508172650 | 26 | 81 | 16.1 | 25.7 | 0.00 | 0.56 | 0.00 | 59 | 1011.9 |
| 20260508172049 | 26 | 119 | 16.1 | 25.7 | 0.00 | 0.56 | 0.00 | 59 | 1011.9 |
| 20260508171549 | 26 | 360 | 16.1 | 24.1 | 0.00 | 0.56 | 0.00 | 58 | 1012.0 |
| 20260508171053 | 26 | 133 | 12.9 | 24.1 | 0.00 | 0.56 | 0.00 | 58 | 1012.0 |
| 20260508170546 | 26 | 89 | 16.1 | 24.1 | 0.00 | 0.56 | 0.00 | 57 | 1012.1 |
| 20260508170045 | 26 | 69 | 16.1 | 24.1 | 0.00 | 0.56 | 0.00 | 58 | 1012.1 |
| 20260508165546 | 26 | 75 | 14.5 | 22.5 | 0.00 | 0.56 | 0.00 | 59 | 1012.0 |
| 20260508165042 | 26 | 100 | 11.3 | 24.1 | 0.00 | 0.56 | 0.00 | 61 | 1012.1 |
| 20260508164543 | 26 | 101 | 14.5 | 27.4 | 0.00 | 0.56 | 0.00 | 62 | 1012.2 |
| 20260508164040 | 25 | 103 | 16.1 | 30.6 | 0.00 | 0.56 | 0.00 | 62 | 1012.2 |
| 20260508163538 | 25 | 61 | 17.7 | 30.6 | 0.00 | 0.56 | 0.00 | 61 | 1012.4 |
| 20260508163040 | 25 | 85 | 17.7 | 29.0 | 0.00 | 0.56 | 0.00 | 62 | 1012.3 |
| 20260508162637 | 25 | 103 | 17.7 | 29.0 | 0.00 | 0.56 | 0.00 | 62 | 1012.3 |
| 20260508162036 | 25 | 106 | 16.1 | 29.0 | 0.00 | 0.56 | 0.00 | 62 | 1012.5 |
| 20260508161535 | 25 | 62 | 20.9 | 29.0 | 0.00 | 0.56 | 0.00 | 61 | 1012.4 |
| 20260508161033 | 26 | 56 | 14.5 | 27.4 | 0.00 | 0.56 | 0.00 | 60 | 1012.4 |
| 20260508160533 | 25 | 93 | 14.5 | 33.8 | 0.00 | 0.56 | 0.00 | 63 | 1012.5 |
| 20260508160030 | 25 | 113 | 19.3 | 43.5 | 0.00 | 0.56 | 0.00 | 64 | 1012.5 |
| 20260508155528 | 25 | 115 | 24.1 | 40.2 | 0.00 | 0.56 | 0.00 | 65 | 1012.5 |
| 20260508155027 | 24 | 126 | 22.5 | 38.6 | 0.00 | 0.56 | 0.00 | 65 | 1012.5 |
| 20260508154525 | 24 | 117 | 25.7 | 46.7 | 0.00 | 0.56 | 0.00 | 66 | 1012.6 |
| 20260508154023 | 24 | 117 | 22.5 | 46.7 | 0.00 | 0.56 | 0.00 | 66 | 1012.6 |
| 20260508153523 | 24 | 129 | 20.9 | 37.0 | 0.00 | 0.56 | 0.00 | 66 | 1012.6 |
| 20260508153022 | 24 | 132 | 25.7 | 37.0 | 0.00 | 0.56 | 0.00 | 65 | 1012.7 |
| 20260508152521 | 24 | 121 | 19.3 | 33.8 | 0.00 | 0.56 | 0.00 | 67 | 1012.6 |
| 20260508152021 | 24 | 119 | 17.7 | 38.6 | 0.00 | 0.56 | 0.00 | 67 | 1012.6 |
| 20260508151516 | 23 | 115 | 22.5 | 38.6 | 0.00 | 0.56 | 0.00 | 66 | 1012.7 |
| 20260508151014 | 24 | 147 | 22.5 | 41.8 | 0.00 | 0.56 | 0.00 | 67 | 1012.6 |
| 20260508150515 | 24 | 105 | 17.7 | 40.2 | 0.00 | 0.56 | 0.00 | 66 | 1012.7 |
| 20260508150019 | 24 | 99 | 20.9 | 30.6 | 0.00 | 0.56 | 0.00 | 65 | 1012.7 |
| 20260508145511 | 24 | 94 | 12.9 | 40.2 | 0.00 | 0.56 | 0.00 | 67 | 1012.8 |
| 20260508145011 | 23 | 136 | 19.3 | 40.2 | 0.00 | 0.56 | 0.00 | 66 | 1012.8 |
| 20260508144509 | 24 | 123 | 16.1 | 38.6 | 0.00 | 0.56 | 0.00 | 65 | 1012.6 |
| 20260508144007 | 24 | 120 | 16.1 | 32.2 | 0.00 | 0.56 | 0.00 | 65 | 1012.6 |
| 20260508143505 | 24 | 141 | 16.1 | 32.2 | 0.00 | 0.56 | 0.00 | 65 | 1012.6 |
| 20260508143004 | 24 | 118 | 14.5 | 32.2 | 0.00 | 0.56 | 0.00 | 66 | 1012.7 |
| 20260508142503 | 23 | 151 | 11.3 | 32.2 | 0.00 | 0.56 | 0.00 | 66 | 1012.7 |
| 20260508142002 | 23 | 128 | 11.3 | 29.0 | 0.00 | 0.56 | 0.00 | 68 | 1012.7 |
| 20260508141600 | 23 | 161 | 11.3 | 29.0 | 0.00 | 0.56 | 0.00 | 68 | 1012.6 |
| 20260508141059 | 23 | 138 | 14.5 | 30.6 | 0.00 | 0.56 | 0.00 | 68 | 1012.6 |
| 20260508140559 | 23 | 108 | 17.7 | 37.0 | 0.00 | 0.56 | 0.00 | 68 | 1012.6 |
| 20260508140106 | 23 | 103 | 20.9 | 37.0 | 0.00 | 0.56 | 0.00 | 68 | 1012.5 |
| 20260508135554 | 23 | 104 | 16.1 | 29.0 | 0.00 | 0.56 | 0.00 | 67 | 1012.3 |
| 20260508135054 | 23 | 140 | 17.7 | 27.4 | 0.00 | 0.56 | 0.00 | 67 | 1012.5 |
| 20260508134600 | 23 | 105 | 14.5 | 27.4 | 0.00 | 0.56 | 0.00 | 68 | 1012.4 |
| 20260508134050 | 23 | 117 | 11.3 | 33.8 | 0.00 | 0.56 | 0.00 | 67 | 1012.3 |
| 20260508133549 | 23 | 116 | 14.5 | 32.2 | 0.00 | 0.56 | 0.00 | 66 | 1012.1 |
| 20260508133048 | 23 | 142 | 14.5 | 29.0 | 0.00 | 0.56 | 0.00 | 64 | 1012.3 |
| 20260508132549 | 23 | 117 | 16.1 | 25.7 | 0.00 | 0.56 | 0.00 | 64 | 1012.1 |
| 20260508132045 | 22 | 72 | 11.3 | 25.7 | 0.00 | 0.56 | 0.00 | 64 | 1012.1 |
| 20260508131545 | 22 | 107 | 12.9 | 25.7 | 0.00 | 0.56 | 0.00 | 65 | 1011.9 |
| 20260508131042 | 22 | 128 | 12.9 | 29.0 | 0.00 | 0.56 | 0.00 | 66 | 1011.9 |
| 20260508130540 | 22 | 144 | 12.9 | 29.0 | 0.00 | 0.56 | 0.00 | 68 | 1011.9 |
| 20260508130040 | 21 | 78 | 9.7 | 27.4 | 0.00 | 0.56 | 0.00 | 68 | 1011.8 |
| 20260508125539 | 22 | 88 | 14.5 | 25.7 | 0.00 | 0.56 | 0.00 | 69 | 1011.9 |
| 20260508125038 | 21 | 118 | 9.7 | 24.1 | 0.00 | 0.56 | 0.00 | 68 | 1011.7 |
| 20260508124537 | 21 | 124 | 12.9 | 24.1 | 0.00 | 0.56 | 0.00 | 68 | 1011.7 |
| 20260508124035 | 21 | 102 | 9.7 | 25.7 | 0.00 | 0.56 | 0.00 | 68 | 1011.7 |
| 20260508123534 | 21 | 132 | 12.9 | 27.4 | 0.00 | 0.56 | 0.00 | 69 | 1011.7 |
| 20260508123033 | 21 | 116 | 11.3 | 27.4 | 0.00 | 0.56 | 0.00 | 70 | 1011.6 |
| 20260508122531 | 21 | 119 | 14.5 | 24.1 | 0.00 | 0.56 | 0.00 | 71 | 1011.5 |
| 20260508122030 | 20 | 121 | 14.5 | 24.1 | 0.00 | 0.56 | 0.00 | 72 | 1011.5 |
| 20260508121528 | 20 | 132 | 12.9 | 20.9 | 0.00 | 0.56 | 0.00 | 73 | 1011.4 |
| 20260508121027 | 20 | 97 | 11.3 | 19.3 | 0.00 | 0.56 | 0.00 | 74 | 1011.6 |
| 20260508120525 | 20 | 360 | 14.5 | 19.3 | 0.00 | 0.56 | 0.00 | 74 | 1011.6 |
| 20260508120033 | 20 | 120 | 11.3 | 24.1 | 0.00 | 0.56 | 0.00 | 75 | 1011.5 |
| 20260508115523 | 20 | 122 | 11.3 | 27.4 | 0.00 | 0.56 | 0.00 | 75 | 1011.5 |
| 20260508115020 | 19 | 123 | 14.5 | 27.4 | 0.00 | 0.56 | 0.00 | 75 | 1011.5 |
| 20260508114519 | 19 | 105 | 11.3 | 25.7 | 0.00 | 0.56 | 0.00 | 76 | 1011.4 |
| 20260508114018 | 19 | 114 | 14.5 | 24.1 | 0.00 | 0.56 | 0.00 | 76 | 1011.5 |
| 20260508113517 | 19 | 105 | 12.9 | 27.4 | 0.00 | 0.56 | 0.00 | 75 | 1011.5 |
| 20260508113016 | 19 | 92 | 16.1 | 27.4 | 0.00 | 0.56 | 0.00 | 75 | 1011.6 |
| 20260508112517 | 19 | 112 | 16.1 | 27.4 | 0.00 | 0.56 | 0.00 | 76 | 1011.6 |
| 20260508112013 | 18 | 98 | 17.7 | 25.7 | 0.00 | 0.56 | 0.00 | 77 | 1011.5 |
| 20260508111516 | 18 | 156 | 16.1 | 24.1 | 0.00 | 0.56 | 0.00 | 77 | 1011.4 |
| 20260508111014 | 18 | 122 | 14.5 | 27.4 | 0.00 | 0.56 | 0.00 | 77 | 1011.4 |
| 20260508110511 | 18 | 108 | 17.7 | 27.4 | 0.00 | 0.56 | 0.00 | 77 | 1011.2 |
| 20260508110012 | 18 | 360 | 11.3 | 24.1 | 0.00 | 0.56 | 0.00 | 78 | 1011.2 |
| 20260508105509 | 18 | 127 | 14.5 | 27.4 | 0.00 | 0.56 | 0.00 | 78 | 1011.2 |
| 20260508105015 | 18 | 131 | 16.1 | 27.4 | 0.00 | 0.56 | 0.00 | 78 | 1011.1 |
| 20260508104508 | 18 | 115 | 16.1 | 27.4 | 0.00 | 0.56 | 0.00 | 79 | 1011.1 |
| 20260508104007 | 18 | 104 | 17.7 | 24.1 | 0.00 | 0.56 | 0.00 | 79 | 1011.0 |
| 20260508103506 | 18 | 111 | 16.1 | 24.1 | 0.00 | 0.56 | 0.00 | 79 | 1010.9 |
| 20260508103006 | 18 | 81 | 16.1 | 24.1 | 0.00 | 0.56 | 0.00 | 79 | 1010.9 |
| 20260508102506 | 18 | 360 | 12.9 | 22.5 | 0.00 | 0.56 | 0.00 | 79 | 1010.9 |
| 20260508102007 | 18 | 106 | 14.5 | 19.3 | 0.00 | 0.56 | 0.00 | 80 | 1010.9 |
| 20260508101504 | 18 | 107 | 11.3 | 17.7 | 0.00 | 0.56 | 0.00 | 80 | 1010.8 |
| 20260508101004 | 19 | 108 | 12.9 | 22.5 | 0.00 | 0.56 | 0.00 | 80 | 1010.9 |
| 20260508100503 | 19 | 106 | 12.9 | 22.5 | 0.00 | 0.56 | 0.00 | 79 | 1010.9 |
| 20260508100003 | 19 | 119 | 11.3 | 20.9 | 0.00 | 0.56 | 0.00 | 79 | 1010.9 |
| 20260508095502 | 19 | 84 | 12.9 | 20.9 | 0.00 | 0.56 | 0.00 | 79 | 1011.0 |
| 20260508095003 | 19 | 360 | 9.7 | 24.1 | 0.00 | 0.56 | 0.00 | 79 | 1010.9 |
| 20260508094500 | 19 | 130 | 14.5 | 24.1 | 0.00 | 0.56 | 0.00 | 79 | 1011.0 |
| 20260508094100 | 19 | 115 | 12.9 | 17.7 | 0.00 | 0.56 | 0.00 | 79 | 1011.0 |
| 20260508093601 | 19 | 360 | 11.3 | 20.9 | 0.00 | 0.56 | 0.00 | 79 | 1010.9 |
| 20260508093105 | 19 | 102 | 12.9 | 22.5 | 0.00 | 0.56 | 0.00 | 79 | 1011.0 |
| 20260508092558 | 19 | 101 | 14.5 | 24.1 | 0.00 | 0.56 | 0.00 | 80 | 1011.0 |
| 20260508092057 | 19 | 132 | 12.9 | 24.1 | 0.00 | 0.56 | 0.00 | 80 | 1011.0 |
| 20260508091611 | 19 | 107 | 11.3 | 22.5 | 0.00 | 0.56 | 0.00 | 80 | 1011.0 |
| 20260508091057 | 19 | 85 | 12.9 | 22.5 | 0.00 | 0.56 | 0.00 | 80 | 1011.0 |
| 20260508090556 | 19 | 107 | 12.9 | 20.9 | 0.00 | 0.56 | 0.00 | 80 | 1011.0 |
| 20260508090105 | 19 | 103 | 12.9 | 20.9 | 0.00 | 0.56 | 0.00 | 80 | 1011.0 |
| 20260508085556 | 19 | 130 | 9.7 | 17.7 | 0.00 | 0.56 | 0.00 | 80 | 1010.9 |
| 20260508085054 | 19 | 360 | 9.7 | 17.7 | 0.00 | 0.56 | 0.00 | 80 | 1011.0 |
| 20260508084553 | 19 | 360 | 9.7 | 16.1 | 0.00 | 0.56 | 0.00 | 80 | 1010.9 |
| 20260508084053 | 19 | 88 | 11.3 | 20.9 | 0.00 | 0.56 | 0.00 | 80 | 1010.9 |
| 20260508083552 | 19 | 98 | 12.9 | 20.9 | 0.00 | 0.56 | 0.00 | 80 | 1011.1 |
| 20260508083102 | 19 | 360 | 11.3 | 17.7 | 0.00 | 0.56 | 0.00 | 80 | 1011.1 |
| 20260508082552 | 19 | 360 | 9.7 | 20.9 | 0.00 | 0.56 | 0.00 | 81 | 1011.1 |
| 20260508082050 | 19 | 360 | 12.9 | 17.7 | 0.00 | 0.56 | 0.00 | 81 | 1011.2 |
| 20260508081551 | 20 | 62 | 11.3 | 17.7 | 0.00 | 0.56 | 0.00 | 80 | 1011.3 |
| 20260508081049 | 19 | 360 | 11.3 | 17.7 | 0.00 | 0.56 | 0.00 | 81 | 1011.3 |
| 20260508080547 | 20 | 360 | 9.7 | 17.7 | 0.00 | 0.56 | 0.00 | 81 | 1011.4 |
| 20260508080047 | 20 | 116 | 9.7 | 20.9 | 0.00 | 0.56 | 0.00 | 81 | 1011.4 |
| 20260508075546 | 20 | 360 | 9.7 | 16.1 | 0.00 | 0.56 | 0.00 | 80 | 1011.5 |
| 20260508075046 | 20 | 360 | 9.7 | 16.1 | 0.00 | 0.56 | 0.00 | 80 | 1011.4 |
| 20260508074545 | 20 | 92 | 9.7 | 19.3 | 0.00 | 0.56 | 0.00 | 80 | 1011.5 |
| 20260508074044 | 20 | 360 | 11.3 | 19.3 | 0.00 | 0.56 | 0.00 | 80 | 1011.6 |
| 20260508073544 | 20 | 88 | 8.0 | 17.7 | 0.00 | 0.56 | 0.00 | 81 | 1011.6 |
| 20260508073048 | 19 | 113 | 6.4 | 16.1 | 0.00 | 0.56 | 0.00 | 82 | 1011.6 |
| 20260508072544 | 20 | 117 | 9.7 | 16.1 | 0.00 | 0.56 | 0.00 | 82 | 1011.6 |
| 20260508072042 | 20 | 360 | 9.7 | 16.1 | 0.00 | 0.56 | 0.00 | 82 | 1011.7 |
| 20260508071544 | 20 | 111 | 9.7 | 17.7 | 0.00 | 0.56 | 0.00 | 81 | 1011.8 |
| 20260508071041 | 20 | 82 | 9.7 | 17.7 | 0.00 | 0.56 | 0.00 | 81 | 1012.1 |
| 20260508070541 | 20 | 94 | 6.4 | 14.5 | 0.00 | 0.56 | 0.00 | 81 | 1012.1 |
| 20260508070040 | 20 | 84 | 8.0 | 14.5 | 0.00 | 0.56 | 0.00 | 82 | 1012.2 |
| 20260508065539 | 20 | 132 | 6.4 | 16.1 | 0.00 | 0.56 | 0.00 | 82 | 1012.3 |
| 20260508065037 | 20 | 119 | 9.7 | 16.1 | 0.00 | 0.56 | 0.00 | 82 | 1012.3 |
| 20260508064538 | 20 | 135 | 11.3 | 16.1 | 0.00 | 0.56 | 0.00 | 82 | 1012.4 |
| 20260508064036 | 20 | 111 | 8.0 | 12.9 | 0.00 | 0.56 | 0.00 | 82 | 1012.5 |
| 20260508063534 | 20 | 129 | 9.7 | 12.9 | 0.00 | 0.56 | 0.00 | 81 | 1012.6 |
| 20260508063033 | 20 | 123 | 4.8 | 14.5 | 0.00 | 0.56 | 0.00 | 81 | 1012.7 |
| 20260508062534 | 20 | 129 | 6.4 | 14.5 | 0.00 | 0.56 | 0.00 | 81 | 1012.8 |
| 20260508062033 | 20 | 127 | 6.4 | 16.1 | 0.00 | 0.56 | 0.00 | 81 | 1012.8 |
| 20260508061534 | 20 | 109 | 9.7 | 20.9 | 0.00 | 0.56 | 0.00 | 81 | 1012.9 |
| 20260508061035 | 20 | 121 | 12.9 | 20.9 | 0.00 | 0.56 | 0.00 | 82 | 1013.0 |
| 20260508060530 | 20 | 144 | 9.7 | 19.3 | 0.00 | 0.56 | 0.00 | 82 | 1013.0 |
| 20260508060030 | 20 | 124 | 9.7 | 22.5 | 0.00 | 0.56 | 0.56 | 82 | 1013.2 |
| 20260508055529 | 20 | 119 | 14.5 | 22.5 | 0.00 | 0.56 | 0.56 | 82 | 1013.3 |
| 20260508055033 | 20 | 103 | 12.9 | 22.5 | 0.00 | 0.56 | 0.56 | 82 | 1013.2 |
| 20260508054529 | 20 | 115 | 9.7 | 20.9 | 0.00 | 0.56 | 0.56 | 82 | 1013.3 |
| 20260508054030 | 20 | 103 | 11.3 | 20.9 | 0.00 | 0.56 | 0.56 | 82 | 1013.4 |
| 20260508053529 | 20 | 98 | 11.3 | 20.9 | 0.00 | 0.56 | 0.56 | 83 | 1013.4 |
| 20260508053031 | 20 | 75 | 9.7 | 24.1 | 0.00 | 0.56 | 0.56 | 83 | 1013.5 |
| 20260508052531 | 20 | 86 | 12.9 | 25.7 | 0.00 | 0.56 | 0.56 | 83 | 1013.6 |
| 20260508052028 | 20 | 106 | 14.5 | 25.7 | 0.00 | 0.56 | 0.56 | 83 | 1013.5 |
| 20260508051531 | 20 | 86 | 16.1 | 25.7 | 0.00 | 0.56 | 0.56 | 82 | 1013.6 |
| 20260508051028 | 20 | 132 | 12.9 | 25.7 | 0.00 | 0.56 | 0.56 | 82 | 1013.8 |
| 20260508050528 | 20 | 90 | 12.9 | 24.1 | 0.00 | 0.56 | 0.56 | 81 | 1013.9 |
| 20260508050029 | 20 | 118 | 12.9 | 22.5 | 0.00 | 0.56 | 0.56 | 81 | 1013.8 |
| 20260508045526 | 20 | 126 | 14.5 | 22.5 | 0.00 | 0.56 | 0.56 | 81 | 1013.9 |
| 20260508045027 | 20 | 117 | 12.9 | 27.4 | 0.00 | 0.56 | 0.56 | 81 | 1013.8 |
| 20260508044526 | 20 | 121 | 17.7 | 27.4 | 0.00 | 0.56 | 0.56 | 81 | 1013.6 |
| 20260508044027 | 20 | 117 | 11.3 | 20.9 | 0.00 | 0.56 | 0.56 | 81 | 1013.8 |
| 20260508043525 | 20 | 113 | 8.0 | 17.7 | 0.00 | 0.56 | 0.56 | 81 | 1013.7 |
| 20260508043026 | 20 | 157 | 9.7 | 19.3 | 0.00 | 0.56 | 0.56 | 81 | 1013.7 |
| 20260508042526 | 20 | 122 | 11.3 | 19.3 | 0.00 | 0.56 | 0.56 | 82 | 1013.8 |
| 20260508042025 | 20 | 140 | 11.3 | 19.3 | 0.00 | 0.56 | 0.56 | 82 | 1013.7 |
| 20260508041525 | 20 | 114 | 9.7 | 20.9 | 0.00 | 0.56 | 0.56 | 82 | 1013.6 |
| 20260508041025 | 20 | 121 | 12.9 | 24.1 | 0.00 | 0.56 | 0.56 | 82 | 1013.6 |
| 20260508040526 | 20 | 90 | 14.5 | 24.1 | 0.00 | 0.56 | 0.56 | 82 | 1013.6 |
| 20260508040024 | 20 | 119 | 9.7 | 19.3 | 0.00 | 0.56 | 0.56 | 82 | 1013.5 |
| 20260508035524 | 20 | 96 | 9.7 | 17.7 | 0.00 | 0.56 | 0.56 | 82 | 1013.5 |
| 20260508035028 | 20 | 99 | 8.0 | 16.1 | 0.00 | 0.56 | 0.56 | 83 | 1013.4 |
| 20260508034530 | 20 | 138 | 6.4 | 17.7 | 0.00 | 0.56 | 0.56 | 83 | 1013.5 |
| 20260508034023 | 20 | 117 | 8.0 | 17.7 | 0.00 | 0.56 | 0.56 | 83 | 1013.5 |
| 20260508033523 | 20 | 122 | 9.7 | 16.1 | 0.00 | 0.56 | 0.56 | 83 | 1013.4 |
| 20260508033023 | 20 | 148 | 9.7 | 20.9 | 0.00 | 0.56 | 0.56 | 83 | 1013.3 |
| 20260508032523 | 20 | 144 | 14.5 | 20.9 | 0.00 | 0.56 | 0.56 | 83 | 1013.4 |
| 20260508032022 | 20 | 123 | 11.3 | 24.1 | 0.00 | 0.56 | 0.56 | 84 | 1013.4 |
| 20260508031525 | 20 | 76 | 11.3 | 24.1 | 0.00 | 0.56 | 0.56 | 84 | 1013.3 |
| 20260508031022 | 20 | 92 | 11.3 | 20.9 | 0.00 | 0.56 | 0.56 | 84 | 1013.3 |
| 20260508030522 | 20 | 140 | 9.7 | 29.0 | 0.00 | 0.56 | 0.56 | 84 | 1013.3 |
| 20260508030022 | 20 | 140 | 12.9 | 29.0 | 0.00 | 0.56 | 0.56 | 83 | 1013.3 |
| 20260508025520 | 20 | 138 | 12.9 | 20.9 | 0.00 | 0.56 | 0.56 | 83 | 1013.3 |
| 20260508025021 | 20 | 123 | 9.7 | 30.6 | 0.00 | 0.56 | 0.56 | 83 | 1013.2 |
| 20260508024523 | 21 | 108 | 14.5 | 30.6 | 0.00 | 0.56 | 0.56 | 82 | 1013.2 |
| 20260508024020 | 21 | 138 | 12.9 | 19.3 | 0.00 | 0.56 | 0.56 | 82 | 1013.1 |
| 20260508023520 | 20 | 107 | 9.7 | 27.4 | 0.00 | 0.56 | 0.56 | 83 | 1012.9 |
| 20260508023019 | 20 | 140 | 14.5 | 27.4 | 0.00 | 0.56 | 0.56 | 83 | 1012.9 |
| 20260508022520 | 20 | 167 | 11.3 | 20.9 | 0.00 | 0.56 | 0.56 | 84 | 1012.8 |
| 20260508022019 | 20 | 189 | 9.7 | 20.9 | 0.00 | 0.56 | 0.56 | 84 | 1012.8 |
| 20260508021518 | 20 | 111 | 6.4 | 22.5 | 0.00 | 0.56 | 0.56 | 84 | 1012.8 |
| 20260508021018 | 21 | 134 | 11.3 | 22.5 | 0.00 | 0.56 | 0.56 | 83 | 1012.8 |
| 20260508020519 | 21 | 153 | 6.4 | 24.1 | 0.00 | 0.56 | 0.56 | 82 | 1012.7 |
| 20260508020022 | 21 | 95 | 11.3 | 29.0 | 0.00 | 0.56 | 0.56 | 82 | 1012.7 |
| 20260508015518 | 21 | 105 | 17.7 | 29.0 | 0.00 | 0.56 | 0.56 | 82 | 1012.6 |
| 20260508015018 | 21 | 76 | 16.1 | 37.0 | 0.00 | 0.56 | 0.56 | 81 | 1012.6 |
| 20260508014518 | 21 | 92 | 17.7 | 37.0 | 0.00 | 0.56 | 0.56 | 81 | 1012.6 |
| 20260508014017 | 21 | 127 | 11.3 | 22.5 | 0.00 | 0.56 | 0.56 | 81 | 1012.4 |
| 20260508013518 | 21 | 67 | 14.5 | 22.5 | 0.00 | 0.56 | 0.56 | 81 | 1012.6 |
| 20260508013017 | 21 | 92 | 11.3 | 19.3 | 0.00 | 0.56 | 0.56 | 80 | 1012.5 |
| 20260508012516 | 21 | 105 | 8.0 | 19.3 | 0.00 | 0.56 | 0.56 | 80 | 1012.6 |
| 20260508012018 | 21 | 98 | 12.9 | 19.3 | 0.00 | 0.56 | 0.56 | 79 | 1012.5 |
| 20260508011515 | 21 | 98 | 9.7 | 19.3 | 0.00 | 0.56 | 0.56 | 80 | 1012.6 |
| 20260508011016 | 21 | 97 | 4.8 | 19.3 | 0.00 | 0.56 | 0.56 | 80 | 1012.5 |
| 20260508010515 | 21 | 96 | 9.7 | 20.9 | 0.00 | 0.56 | 0.56 | 80 | 1012.5 |
| 20260508010015 | 21 | 113 | 11.3 | 17.7 | 0.00 | 0.56 | 0.56 | 81 | 1012.5 |
| 20260508005515 | 21 | 133 | 9.7 | 16.1 | 0.00 | 0.56 | 0.56 | 81 | 1012.5 |
| 20260508005015 | 21 | 122 | 8.0 | 12.9 | 0.00 | 0.56 | 0.56 | 82 | 1012.6 |
| 20260508004515 | 21 | 116 | 8.0 | 14.5 | 0.00 | 0.56 | 0.56 | 83 | 1012.6 |
| 20260508004018 | 21 | 107 | 6.4 | 14.5 | 0.00 | 0.56 | 0.56 | 85 | 1012.7 |
| 20260508003516 | 21 | 66 | 3.2 | 6.4 | 0.00 | 0.56 | 0.56 | 88 | 1012.6 |
| 20260508003015 | 21 | 175 | 0.0 | 4.8 | 0.00 | 0.56 | 0.56 | 89 | 1012.6 |
| 20260508002514 | 21 | 189 | 1.6 | 4.8 | 0.00 | 0.56 | 0.56 | 89 | 1012.5 |
| 20260508002014 | 21 | 199 | 0.0 | 3.2 | 0.00 | 0.56 | 0.56 | 89 | 1012.6 |
| 20260508001514 | 21 | 323 | 0.0 | 0.0 | 0.00 | 0.56 | 0.56 | 88 | 1012.5 |
| 20260508001015 | 21 | 323 | 0.0 | 0.0 | 0.00 | 0.56 | 0.56 | 88 | 1012.5 |
| 20260508000514 | 21 | 323 | 0.0 | 1.6 | 0.00 | 0.56 | 0.56 | 88 | 1012.4 |
| 20260508000014 | 21 | 323 | 0.0 | 1.6 | 0.00 | 0.56 | 0.56 | 88 | 1012.3 |
| 20260507235518 | 21 | 305 | 0.0 | 3.2 | 0.00 | 0.56 | 0.56 | 87 | 1012.4 |
| 20260507235012 | 21 | 300 | 0.0 | 4.8 | 0.00 | 0.56 | 0.56 | 87 | 1012.5 |
| 20260507234513 | 21 | 268 | 0.0 | 0.0 | 0.00 | 0.56 | 0.56 | 87 | 1012.6 |
| 20260507234012 | 21 | 268 | 0.0 | 6.4 | 0.00 | 0.56 | 0.56 | 87 | 1012.6 |
| 20260507233512 | 21 | 257 | 0.0 | 6.4 | 0.00 | 0.56 | 0.56 | 87 | 1012.4 |
| 20260507233012 | 21 | 251 | 3.2 | 4.8 | 0.00 | 0.56 | 0.56 | 87 | 1012.4 |
| 20260507232514 | 21 | 275 | 0.0 | 0.0 | 0.00 | 0.56 | 0.56 | 87 | 1012.3 |
| 20260507232011 | 21 | 275 | 0.0 | 3.2 | 0.00 | 0.56 | 0.56 | 86 | 1012.2 |
| 20260507231513 | 21 | 275 | 0.0 | 6.4 | 0.00 | 0.56 | 0.56 | 86 | 1012.2 |
| 20260507231012 | 21 | 267 | 1.6 | 6.4 | 0.00 | 0.56 | 0.56 | 86 | 1012.1 |
| 20260507230511 | 21 | 262 | 1.6 | 3.2 | 0.00 | 0.56 | 0.56 | 86 | 1012.1 |
| 20260507230011 | 21 | 267 | 0.0 | 1.6 | 0.00 | 0.56 | 0.56 | 86 | 1012.1 |
| 20260507225511 | 21 | 239 | 0.0 | 3.2 | 0.00 | 0.56 | 0.56 | 86 | 1012.0 |
| 20260507225011 | 21 | 241 | 0.0 | 3.2 | 0.00 | 0.56 | 0.56 | 86 | 1011.8 |
| 20260507224516 | 22 | 255 | 1.6 | 6.4 | 0.00 | 0.56 | 0.56 | 85 | 1011.8 |
| 20260507224011 | 22 | 265 | 1.6 | 6.4 | 0.00 | 0.56 | 0.56 | 85 | 1011.9 |
| 20260507223510 | 22 | 259 | 1.6 | 11.3 | 0.00 | 0.56 | 0.56 | 84 | 1011.9 |
| 20260507223010 | 22 | 287 | 3.2 | 11.3 | 0.00 | 0.56 | 0.56 | 83 | 1011.7 |
| 20260507222509 | 22 | 262 | 3.2 | 8.0 | 0.00 | 0.56 | 0.56 | 82 | 1011.5 |
| 20260507222010 | 22 | 225 | 3.2 | 6.4 | 0.00 | 0.56 | 0.56 | 81 | 1011.4 |
| 20260507221512 | 22 | 201 | 1.6 | 4.8 | 0.00 | 0.56 | 0.56 | 80 | 1011.4 |
| 20260507221009 | 22 | 229 | 0.0 | 8.0 | 0.00 | 0.56 | 0.56 | 81 | 1011.5 |
| 20260507220509 | 22 | 268 | 4.8 | 8.0 | 0.00 | 0.56 | 0.56 | 81 | 1011.5 |
| 20260507220009 | 21 | 254 | 1.6 | 6.4 | 0.00 | 0.56 | 0.56 | 83 | 1011.8 |
| 20260507215508 | 21 | 263 | 1.6 | 8.0 | 0.00 | 0.56 | 0.56 | 83 | 1011.6 |
| 20260507215007 | 21 | 296 | 3.2 | 8.0 | 0.00 | 0.56 | 0.56 | 81 | 1011.7 |
| 20260507214520 | 21 | 274 | 3.2 | 6.4 | 0.05 | 0.56 | 0.56 | 79 | 1011.6 |
| 20260507214008 | 21 | 286 | 1.6 | 6.4 | 0.10 | 0.56 | 0.56 | 80 | 1011.5 |
| 20260507213507 | 21 | 309 | 1.6 | 6.4 | 0.53 | 0.56 | 0.56 | 81 | 1011.3 |
| 20260507213006 | 21 | 300 | 3.2 | 6.4 | 0.56 | 0.56 | 0.56 | 86 | 1011.3 |
| 20260507212508 | 21 | 314 | 0.0 | 6.4 | 0.56 | 0.56 | 0.56 | 88 | 1011.2 |
| 20260507212007 | 20 | 336 | 1.6 | 9.7 | 0.56 | 0.56 | 0.56 | 88 | 1011.2 |
| 20260507211512 | 20 | 68 | 1.6 | 17.7 | 0.56 | 0.56 | 0.56 | 89 | 1011.3 |
| 20260507211006 | 20 | 308 | 6.4 | 17.7 | 0.56 | 0.56 | 0.56 | 89 | 1011.3 |
| 20260507210509 | 20 | 335 | 1.6 | 6.4 | 0.56 | 0.56 | 0.56 | 89 | 1011.2 |
| 20260507210006 | 20 | 342 | 1.6 | 8.0 | 0.56 | 0.71 | 0.56 | 90 | 1011.2 |
| 20260507205508 | 20 | 55 | 3.2 | 19.3 | 0.56 | 0.71 | 0.56 | 89 | 1011.3 |
| 20260507205007 | 20 | 307 | 4.8 | 19.3 | 0.56 | 0.71 | 0.56 | 89 | 1011.4 |
| 20260507204505 | 20 | 292 | 3.2 | 16.1 | 0.51 | 0.66 | 0.51 | 88 | 1011.5 |
| 20260507204006 | 20 | 306 | 6.4 | 20.9 | 0.46 | 0.61 | 0.46 | 86 | 1011.5 |
| 20260507203507 | 21 | 329 | 9.7 | 20.9 | 0.03 | 0.18 | 0.03 | 82 | 1011.7 |
| 20260507203004 | 22 | 327 | 8.0 | 17.7 | 0.00 | 0.15 | 0.00 | 81 | 1011.2 |
| 20260507202504 | 23 | 317 | 8.0 | 20.9 | 0.00 | 0.15 | 0.00 | 86 | 1011.1 |
| 20260507202003 | 23 | 225 | 4.8 | 20.9 | 0.00 | 0.15 | 0.00 | 86 | 1010.9 |
| 20260507201504 | 23 | 288 | 6.4 | 20.9 | 0.00 | 0.15 | 0.00 | 85 | 1011.1 |
| 20260507201003 | 23 | 273 | 12.9 | 20.9 | 0.00 | 0.15 | 0.00 | 85 | 1011.1 |
| 20260507200503 | 23 | 261 | 9.7 | 20.9 | 0.00 | 0.15 | 0.00 | 85 | 1011.2 |
| 20260507200003 | 23 | 248 | 6.4 | 19.3 | 0.00 | 0.15 | 0.00 | 85 | 1011.1 |
| 20260507195503 | 23 | 293 | 11.3 | 24.1 | 0.00 | 0.15 | 0.00 | 84 | 1011.0 |
| 20260507195003 | 23 | 228 | 11.3 | 24.1 | 0.00 | 0.15 | 0.00 | 84 | 1011.5 |
| 20260507194501 | 23 | 277 | 6.4 | 20.9 | 0.00 | 0.15 | 0.00 | 83 | 1011.0 |
| 20260507194100 | 24 | 266 | 9.7 | 20.9 | 0.00 | 0.15 | 0.00 | 83 | 1011.2 |
| 20260507193559 | 24 | 295 | 8.0 | 17.7 | 0.00 | 0.15 | 0.00 | 82 | 1011.4 |
| 20260507193058 | 25 | 270 | 8.0 | 17.7 | 0.00 | 0.15 | 0.00 | 81 | 1011.6 |
| 20260507192557 | 25 | 308 | 11.3 | 20.9 | 0.00 | 0.15 | 0.00 | 80 | 1011.8 |
| 20260507192057 | 25 | 279 | 6.4 | 22.5 | 0.00 | 0.15 | 0.00 | 79 | 1011.7 |
| 20260507191557 | 26 | 304 | 9.7 | 22.5 | 0.00 | 0.15 | 0.00 | 77 | 1011.7 |
| 20260507191056 | 26 | 309 | 6.4 | 24.1 | 0.00 | 0.15 | 0.00 | 76 | 1011.8 |
| 20260507190557 | 26 | 293 | 12.9 | 24.1 | 0.00 | 0.15 | 0.00 | 75 | 1011.8 |
| 20260507190059 | 27 | 300 | 6.4 | 16.1 | 0.00 | 0.15 | 0.00 | 72 | 1011.9 |
| 20260507185556 | 28 | 237 | 4.8 | 16.1 | 0.00 | 0.15 | 0.00 | 55 | 1012.1 |
| 20260507185055 | 28 | 313 | 3.2 | 6.4 | 0.00 | 0.15 | 0.00 | 54 | 1012.0 |
| 20260507184557 | 28 | 92 | 1.6 | 6.4 | 0.00 | 0.15 | 0.00 | 55 | 1012.3 |
| 20260507184056 | 28 | 74 | 1.6 | 16.1 | 0.00 | 0.15 | 0.00 | 55 | 1012.2 |
| 20260507183554 | 28 | 84 | 9.7 | 16.1 | 0.00 | 0.15 | 0.00 | 57 | 1012.4 |
| 20260507183052 | 27 | 82 | 8.0 | 22.5 | 0.00 | 0.15 | 0.00 | 58 | 1012.4 |
| 20260507182556 | 27 | 104 | 9.7 | 22.5 | 0.00 | 0.15 | 0.00 | 59 | 1012.5 |